Miscellaneous Local Product
Issued by NWS Hastings, NE

Home | Current Version | Previous Version | Graphics & Text | Print | Product List | Glossary On
Versions: 1 2 3 4 5 6 7 8 9 10 11 12 13 14 15 16 17 18 19 20 21 22 23 24 25 26 27 28 29 30 31 32 33 34 35 36 37 38 39 40 41 42 43 44 45 46 47 48 49 50
000
AXUS43 KGID 251802
MISGRI

GID CWA HOURLY WEATHER ROUNDUP
NATIONAL WEATHER SERVICE HASTINGS NE
1200 PM CST THU DEC 25 2014

NOTE: "FAIR" INDICATES FEW OR NO CLOUDS BELOW 12,000 FEET WITH NO
SIGNIFICANT WEATHER AND/OR OBSTRUCTIONS TO VISIBILITY.

...SOUTH CENTRAL NEBRASKA...

CITY           SKY/WX    TMP DP  RH WIND       PRES   REMARKS
GRAND ISLAND   SUNNY     39  25  57 SE9       29.53F WCI  33
HASTINGS       SUNNY     41  23  48 S12G20    29.51F
KEARNEY        SUNNY     39  23  52 SE10      29.50F WCI  32
ORD            SUNNY     37  24  59 E6        29.50F WCI  32
YORK           SUNNY     41  28  60 S14       29.54F
AURORA         SUNNY     41  27  58 S10       29.53F
LEXINGTON      SUNNY     37  25  62 E5        29.47F WCI  33
HOLDREGE       SUNNY     38  22  53 SE8       29.47F WCI  32
HEBRON         SUNNY     44  27  50 S16       29.54F

...NEBRASKA PANHANDLE...

CITY           SKY/WX    TMP DP  RH WIND       PRES   REMARKS
CHADRON        FOG       30  28  92 NE18      29.65F VSB 1/2 WCI  18
ALLIANCE       SNOW      29  27  92 N21       29.57S VSB 1/2 WCI  16
SCOTTSBLUFF    SNOW      30  28  92 NE10      29.58F VSB 1/2 WCI  21
SIDNEY         CLOUDY    32  26  78 N20G28    29.51F WCI  20

...WESTERN AND NORTH CENTRAL NEBRASKA...

CITY           SKY/WX    TMP DP  RH WIND       PRES   REMARKS
VALENTINE      FOG       31  30  96 N13G24    29.63R VSB 1/2 WCI  21
AINSWORTH      CLOUDY    31  25  78 N17G23    29.59R WCI  19
ONEILL         SUNNY     32  28  86 N9        29.57F WCI  24
BROKEN BOW     SUNNY     37  24  59 NE6       29.49F WCI  32
IMPERIAL       SUNNY     40  24  53 N18       29.45F WCI  31
NORTH PLATTE   SUNNY     42  24  49 N12       29.47F
MCCOOK         SUNNY     36  22  56 VRB3      29.44F

...EASTERN NEBRASKA...

CITY           SKY/WX    TMP DP  RH WIND       PRES   REMARKS
NORFOLK        MOSUNNY   37  27  67 SE9       29.58F WCI  30
SO SIOUX CITY  MOSUNNY   37  31  78 SE8       29.65F WCI  31
TEKAMAH        MOSUNNY   40  32  73 SE10      29.63F WCI  33
COLUMBUS       MOSUNNY   41  27  56 SE14      29.59F
ALBION         SUNNY     37  27  65 SE5       29.55F WCI  34
OMAHA EPPLEY   MOSUNNY   42  29  59 S16       29.65F
OFFUTT AFB     SUNNY     41  32  69 SE13      29.64F
MILLARD        SUNNY     41  31  66 SE14      29.64F
LINCOLN        SUNNY     45  30  55 S13       29.60F
NEBRASKA CITY  SUNNY     44  29  57 S16       29.64F
BEATRICE       SUNNY     47  30  51 S21G26    29.58F
FALLS CITY     SUNNY     46  31  55 SE20      29.67F

...NORTHERN KANSAS...

CITY           SKY/WX    TMP DP  RH WIND       PRES   REMARKS
GOODLAND       SUNNY     41  25  53 N7        29.43F
HILL CITY      SUNNY     43  23  45 SW6       29.45F
NORTON         CLEAR     39  19  45 SE7       29.44S WCI  34
PHILLIPSBURG   SUNNY     45  25  45 S8        29.48F
SMITH CENTER   SUNNY     43  25  49 S17G23    29.51F
BELOIT         SUNNY     46  27  46 S20G25    29.51F
HAYS           MOSUNNY   46  23  39 SW17      29.47F
RUSSELL        SUNNY     47  26  44 S24G30    29.48F
CONCORDIA      SUNNY     45  28  51 S17G31    29.55F
SALINA         SUNNY     48  29  47 S20G32    29.57F
TOPEKA         SUNNY     51  29  42 S17G29    29.70F



USA.gov is the U.S. government's official web portal to all federal, state and local government web resources and services.